RH
79 83 80 54 52 46 43 42 51 61 71 80 78 79 59 53 45 50 49 53 62 50 39 43 44 54 30 35 38 43 55 56 54 53 52 55 54 50 52 53 45 40 39
79 75 81 75 76 66 62 67 54 53 54 57 67 72 78 71 69 61 57 54 58 55 46 36 35 32 34 33 29 36 40 46 46 43 46 45 45 42 39 38 41 44 38
79 76 81 89 84 85 76 74 84 68 56 52 64 77 84 81 80 74 74 71 67 64 55 54 48 49 46 40 31 29 32 35 35 36 35 35 36 40 43 46 46 51 38
77 79 79 83 82 79 84 82 90 86 77 66 59 79 90 81 82 84 83 76 76 70 65 58 54 52 51 53 52 49 40 39 42 43 47 50 48 53 48 49 50 49 36
76 78 79 78 77 83 83 85 92 90 87 73 77 70 80 78 74 77 80 88 87 78 77 82 74 72 66 63 59 58 58 57 56 53 51 50 46 45 45 46 43 42 41
72 78 86 81 79 78 80 82 86 90 89 86 79 75 73 68 77 74 71 72 83 85 76 71 74 73 72 67 62 61 60 60 58 54 52 51 47 48 50 46 44 43 43
79 81 78 82 76 75 79 80 75 79 90 88 84 81 71 68 70 72 70 70 66 61 62 67 72 76 77 75 75 77 73 70 66 67 66 62 57 56 56 54 54 52 49
78 80 77 76 74 72 70 75 71 69 87 93 87 79 78 66 65 64 67 66 66 63 60 59 58 62 71 75 74 72 71 71 72 73 71 71 70 66 63 59 55 51 49
81 79 77 76 72 71 74 71 70 72 84 88 82 75 73 71 63 59 57 59 65 68 71 72 70 69 69 75 74 68 65 65 68 68 72 73 72 71 68 63 61 61 64
74 78 77 75 76 75 76 73 71 70 68 73 79 72 63 65 72 72 66 62 63 61 56 60 66 75 77 74 72 72 69 66 66 67 69 68 68 69 72 72 71 74 73
74 73 76 77 78 79 79 75 74 76 73 70 71 68 62 62 72 74 74 70 72 67 65 67 70 72 73 77 78 76 76 76 76 71 73 72 73 77 81 77 78 79 77
71 75 75 77 78 78 80 79 78 78 79 76 75 73 65 63 62 67 69 64 60 55 52 58 69 73 75 73 73 75 79 82 77 77 79 79 78 79 80 80 79 80 77
61 63 71 71 68 70 70 69 73 74 79 80 77 73 66 64 61 58 56 56 53 50 46 43 43 47 47 45 38 43 49 54 57 59 61 62 62 62 56 55 59 59 62
48 48 52 54 52 53 59 66 66 67 67 66 67 61 62 63 62 53 48 43 37 35 34 35 31 28 30 30 27 27 27 25 24 27 29 33 35 35 33 34 35 38 43
53 52 51 49 52 56 58 61 64 64 62 61 67 59 53 50 51 46 43 38 32 28 26 25 26 26 25 25 24 24 23 23 20 19 18 17 17 19 18 17 15 15 18
58 57 57 56 54 54 53 51 52 57 46 58 49 50 48 43 41 39 35 32 30 27 27 28 27 25 24 25 22 22 23 21 20 18 16 16 16 15 14 15 16 16 15
56 56 54 51 53 55 57 57 55 51 49 40 43 44 46 43 37 34 32 30 28 29 30 35 33 30 30 29 28 27 24 22 22 19 18 17 17 17 15 15 16 16 16
57 59 60 60 57 58 58 55 54 55 54 50 49 45 42 44 46 44 41 40 39 37 38 38 36 33 32 32 31 29 25 24 20 19 19 19 19 18 18 18 17 17 16
46 49 50 48 54 54 51 48 46 40 39 47 50 43 37 37 37 36 41 43 47 46 43 40 35 33 33 33 32 31 28 27 24 23 23 21 21 20 19 19 18 19 18
42 41 39 36 35 32 29 29 30 25 25 27 30 29 26 25 29 31 31 32 35 38 36 35 34 35 33 31 31 30 30 29 27 26 24 23 22 20 21 20 19 19 19
48 46 42 36 31 29 24 22 20 20 20 21 22 23 21 17 22 22 23 21 22 24 24 25 27 28 29 29 26 25 24 25 26 25 25 24 23 22 22 23 23 23 23
51 49 44 41 38 37 36 33 31 28 26 26 24 22 21 17 18 22 22 21 22 18 19 19 21 22 23 24 25 26 28 27 27 25 23 24 24 24 25 25 25 25 25
58 57 53 52 47 46 43 43 40 36 32 29 29 26 24 20 22 24 25 24 25 24 24 24 24 24 24 25 28 30 32 30 28 27 26 26 25 25 27 28 28 29 30
65 67 64 56 51 51 50 51 49 45 43 42 39 35 32 30 31 30 29 29 31 31 30 29 29 29 30 31 31 31 30 29 28 28 28 29 30 31 32 33 34 34 34
75 82 82 72 66 55 60 58 57 55 51 49 53 50 47 43 42 42 40 40 41 40 38 36 34 33 35 35 35 35 32 33 32 33 33 33 34 36 36 36 36 36 37
63 93 87 84 83 75 68 60 62 64 64 63 62 56 56 56 58 59 57 54 52 48 44 43 41 45 44 43 41 39 36 35 35 34 34 35 35 36 37 38 40 42 43